QPF
0.00 0.00 0.00 0.00 0.00 0.00 0.00 0.00 0.00 0.00 0.00 0.00 0.00 0.00 0.00 0.00 0.00 0.00 0.00 0.00 0.00 0.00 0.00 0.00 0.01 0.02 0.02 0.00 0.00 0.00 0.00 0.00 0.00 0.00 0.00 0.00 0.00 0.00 0.00 0.00 0.00 0.00 0.00
0.00 0.00 0.00 0.00 0.00 0.00 0.00 0.00 0.00 0.00 0.00 0.00 0.00 0.00 0.00 0.00 0.00 0.00 0.00 0.00 0.00 0.00 0.00 0.00 0.00 0.00 0.01 0.00 0.00 0.00 0.00 0.00 0.00 0.00 0.00 0.00 0.00 0.00 0.00 0.00 0.00 0.00 0.00
0.00 0.00 0.00 0.00 0.00 0.00 0.00 0.00 0.00 0.00 0.00 0.00 0.00 0.00 0.00 0.00 0.00 0.00 0.00 0.00 0.00 0.00 0.00 0.00 0.00 0.01 0.00 0.00 0.00 0.00 0.00 0.00 0.00 0.00 0.00 0.00 0.00 0.00 0.00 0.00 0.01 0.00 0.00
0.00 0.00 0.00 0.00 0.00 0.00 0.00 0.00 0.00 0.00 0.00 0.00 0.00 0.00 0.00 0.00 0.00 0.00 0.00 0.00 0.00 0.00 0.00 0.00 0.00 0.01 0.01 0.04 0.01 0.01 0.00 0.00 0.00 0.00 0.00 0.00 0.00 0.00 0.00 0.00 0.00 0.00 0.00
0.00 0.00 0.00 0.00 0.00 0.00 0.00 0.00 0.00 0.00 0.00 0.00 0.00 0.00 0.00 0.01 0.00 0.00 0.00 0.00 0.00 0.00 0.00 0.00 0.00 0.01 0.01 0.05 0.16 0.03 0.03 0.02 0.00 0.00 0.00 0.00 0.00 0.00 0.00 0.00 0.00 0.00 0.00
0.00 0.00 0.00 0.00 0.00 0.00 0.00 0.00 0.00 0.00 0.00 0.00 0.00 0.00 0.00 0.01 0.01 0.00 0.00 0.00 0.00 0.00 0.00 0.00 0.00 0.00 0.00 0.00 0.06 0.04 0.04 0.02 0.00 0.01 0.01 0.00 0.00 0.00 0.00 0.00 0.00 0.00 0.00
0.00 0.00 0.00 0.00 0.00 0.00 0.00 0.00 0.00 0.00 0.00 0.00 0.00 0.00 0.00 0.00 0.01 0.00 0.00 0.00 0.00 0.00 0.00 0.00 0.00 0.00 0.00 0.00 0.00 0.00 0.00 0.00 0.01 0.01 0.01 0.00 0.00 0.00 0.00 0.00 0.00 0.00 0.00
0.00 0.00 0.00 0.00 0.00 0.00 0.00 0.00 0.00 0.00 0.00 0.00 0.00 0.00 0.00 0.00 0.00 0.00 0.00 0.00 0.00 0.00 0.00 0.00 0.00 0.00 0.00 0.00 0.00 0.00 0.00 0.00 0.00 0.00 0.00 0.00 0.00 0.00 0.00 0.00 0.00 0.00 0.00
0.00 0.00 0.00 0.00 0.00 0.00 0.00 0.00 0.00 0.00 0.00 0.00 0.00 0.00 0.00 0.00 0.00 0.00 0.00 0.00 0.00 0.00 0.00 0.00 0.00 0.00 0.02 0.01 0.00 0.00 0.00 0.00 0.00 0.00 0.00 0.00 0.00 0.00 0.00 0.00 0.00 0.01 0.02
0.00 0.00 0.00 0.00 0.00 0.00 0.00 0.00 0.00 0.00 0.00 0.00 0.00 0.00 0.00 0.00 0.00 0.00 0.00 0.00 0.00 0.00 0.00 0.00 0.00 0.01 0.01 0.02 0.00 0.00 0.01 0.00 0.00 0.00 0.00 0.00 0.00 0.00 0.00 0.00 0.00 0.00 0.01
0.00 0.00 0.00 0.00 0.00 0.00 0.00 0.00 0.00 0.00 0.00 0.00 0.00 0.00 0.00 0.00 0.00 0.00 0.00 0.00 0.00 0.00 0.00 0.00 0.00 0.00 0.00 0.00 0.00 0.00 0.00 0.00 0.00 0.00 0.00 0.00 0.00 0.00 0.00 0.00 0.00 0.00 0.00
0.00 0.00 0.00 0.00 0.00 0.00 0.00 0.00 0.00 0.00 0.00 0.00 0.00 0.00 0.00 0.00 0.00 0.00 0.00 0.00 0.00 0.00 0.00 0.00 0.00 0.00 0.00 0.00 0.00 0.00 0.00 0.00 0.00 0.00 0.00 0.00 0.00 0.00 0.00 0.00 0.00 0.00 0.00
0.00 0.00 0.00 0.00 0.00 0.00 0.00 0.00 0.00 0.00 0.00 0.00 0.00 0.00 0.00 0.00 0.00 0.00 0.00 0.00 0.00 0.00 0.00 0.00 0.00 0.00 0.00 0.00 0.00 0.00 0.00 0.00 0.00 0.00 0.00 0.00 0.00 0.00 0.00 0.00 0.00 0.00 0.00
0.00 0.00 0.00 0.00 0.00 0.00 0.00 0.00 0.00 0.00 0.00 0.00 0.00 0.00 0.00 0.00 0.00 0.00 0.00 0.00 0.00 0.00 0.00 0.00 0.00 0.00 0.00 0.00 0.00 0.00 0.00 0.00 0.00 0.00 0.00 0.00 0.00 0.00 0.00 0.00 0.00 0.00 0.00
0.00 0.00 0.00 0.00 0.00 0.00 0.00 0.00 0.00 0.00 0.00 0.00 0.00 0.00 0.00 0.00 0.00 0.00 0.00 0.00 0.00 0.00 0.00 0.00 0.00 0.00 0.00 0.00 0.00 0.00 0.00 0.00 0.00 0.00 0.00 0.00 0.00 0.00 0.00 0.00 0.00 0.00 0.00
0.00 0.00 0.00 0.00 0.00 0.00 0.00 0.00 0.00 0.00 0.00 0.00 0.00 0.00 0.00 0.00 0.00 0.00 0.00 0.00 0.00 0.00 0.00 0.00 0.00 0.00 0.00 0.00 0.00 0.00 0.00 0.00 0.00 0.00 0.00 0.00 0.00 0.00 0.00 0.00 0.00 0.01 0.01
0.00 0.00 0.00 0.00 0.00 0.00 0.00 0.00 0.00 0.00 0.00 0.00 0.00 0.00 0.00 0.00 0.00 0.00 0.00 0.00 0.00 0.00 0.00 0.00 0.00 0.00 0.00 0.00 0.00 0.00 0.00 0.00 0.00 0.00 0.00 0.00 0.00 0.00 0.00 0.00 0.00 0.00 0.01
0.00 0.00 0.00 0.00 0.00 0.00 0.00 0.00 0.00 0.00 0.00 0.00 0.00 0.00 0.00 0.00 0.00 0.00 0.00 0.00 0.00 0.00 0.00 0.00 0.00 0.00 0.00 0.00 0.00 0.00 0.00 0.00 0.00 0.00 0.00 0.00 0.00 0.00 0.00 0.00 0.00 0.00 0.00
0.00 0.00 0.00 0.00 0.00 0.00 0.00 0.00 0.00 0.00 0.00 0.00 0.00 0.00 0.00 0.00 0.00 0.00 0.00 0.00 0.00 0.00 0.00 0.00 0.00 0.00 0.00 0.00 0.00 0.00 0.00 0.00 0.00 0.00 0.00 0.00 0.00 0.00 0.00 0.00 0.00 0.00 0.00
0.00 0.00 0.00 0.00 0.00 0.00 0.00 0.00 0.00 0.00 0.00 0.00 0.00 0.00 0.00 0.00 0.00 0.00 0.00 0.00 0.00 0.00 0.00 0.00 0.00 0.00 0.00 0.00 0.00 0.00 0.00 0.00 0.00 0.00 0.00 0.00 0.00 0.00 0.00 0.00 0.00 0.00 0.00
0.00 0.00 0.00 0.00 0.00 0.00 0.00 0.00 0.00 0.00 0.00 0.00 0.00 0.00 0.00 0.00 0.00 0.00 0.00 0.00 0.00 0.00 0.00 0.00 0.00 0.00 0.00 0.00 0.00 0.00 0.00 0.00 0.00 0.00 0.00 0.00 0.00 0.00 0.00 0.00 0.00 0.00 0.00
0.00 0.00 0.00 0.00 0.00 0.00 0.00 0.00 0.00 0.00 0.00 0.00 0.00 0.00 0.00 0.00 0.00 0.00 0.00 0.00 0.00 0.00 0.00 0.00 0.00 0.00 0.00 0.00 0.00 0.00 0.00 0.00 0.00 0.00 0.00 0.00 0.00 0.00 0.00 0.00 0.00 0.00 0.00
0.00 0.00 0.00 0.00 0.00 0.00 0.00 0.00 0.00 0.00 0.00 0.00 0.00 0.00 0.00 0.00 0.00 0.00 0.00 0.00 0.00 0.00 0.00 0.00 0.00 0.00 0.00 0.00 0.00 0.00 0.00 0.00 0.00 0.00 0.00 0.00 0.00 0.00 0.00 0.00 0.00 0.00 0.00
0.00 0.00 0.00 0.00 0.00 0.00 0.00 0.00 0.00 0.00 0.00 0.00 0.00 0.00 0.00 0.00 0.00 0.00 0.00 0.00 0.00 0.00 0.00 0.00 0.00 0.00 0.00 0.00 0.00 0.00 0.00 0.00 0.00 0.00 0.00 0.00 0.00 0.00 0.00 0.00 0.00 0.00 0.00
0.00 0.00 0.00 0.00 0.00 0.00 0.00 0.00 0.00 0.00 0.00 0.00 0.00 0.00 0.00 0.00 0.00 0.00 0.00 0.00 0.00 0.00 0.00 0.00 0.00 0.00 0.00 0.00 0.00 0.00 0.00 0.00 0.00 0.00 0.00 0.00 0.00 0.00 0.00 0.00 0.00 0.00 0.00
0.00 0.00 0.00 0.00 0.00 0.00 0.00 0.00 0.00 0.00 0.00 0.00 0.00 0.00 0.00 0.00 0.00 0.00 0.00 0.00 0.00 0.00 0.00 0.00 0.00 0.00 0.00 0.00 0.00 0.00 0.00 0.00 0.00 0.00 0.00 0.00 0.00 0.00 0.00 0.00 0.00 0.00 0.00
MSLP
1026.00 1025.64 1025.40 1024.99 1024.60 1024.26 1023.80 1023.32 1022.84 1022.25 1021.67 1021.17 1020.61 1020.08 1019.56 1018.95 1018.55 1018.14 1017.65 1017.29 1016.90 1016.49 1016.04 1015.64 1015.17 1014.79 1014.46 1014.48 1014.42 1014.39 1014.50 1014.63 1014.71 1014.55 1014.48 1014.17 1013.99 1013.75 1013.49 1013.09 1012.98 1013.00 1012.67
1026.07 1025.71 1025.43 1025.09 1024.72 1024.34 1023.81 1023.28 1022.84 1022.40 1021.78 1021.35 1020.82 1020.26 1019.69 1019.17 1018.68 1018.35 1018.02 1017.53 1017.18 1016.75 1016.37 1015.91 1015.36 1014.87 1014.67 1014.33 1014.44 1014.35 1014.31 1014.40 1014.59 1014.80 1014.74 1014.44 1014.28 1013.95 1013.89 1013.56 1013.28 1013.11 1012.95
1026.15 1025.82 1025.51 1025.22 1024.88 1024.41 1023.84 1023.34 1022.92 1022.57 1022.06 1021.43 1020.95 1020.44 1019.89 1019.35 1018.80 1018.37 1018.11 1017.85 1017.59 1017.24 1016.88 1016.42 1015.76 1015.27 1014.76 1014.42 1014.22 1014.09 1014.16 1014.13 1014.21 1014.39 1014.50 1014.50 1014.34 1014.13 1014.00 1013.58 1013.63 1013.42 1012.85
1026.18 1025.91 1025.66 1025.32 1024.96 1024.55 1024.02 1023.54 1023.09 1022.66 1022.24 1021.63 1021.12 1020.61 1020.01 1019.49 1018.92 1018.64 1018.38 1018.14 1017.88 1017.54 1017.14 1016.70 1016.07 1015.37 1014.79 1014.24 1013.94 1013.64 1013.90 1013.95 1013.98 1014.05 1014.24 1014.54 1014.53 1014.28 1014.22 1014.15 1013.79 1013.35 1013.07
1026.24 1025.99 1025.72 1025.32 1024.96 1024.58 1024.11 1023.69 1023.23 1022.81 1022.49 1022.07 1021.43 1020.83 1020.10 1019.53 1018.85 1018.69 1018.47 1018.35 1018.23 1017.89 1017.37 1016.95 1016.40 1015.80 1015.10 1014.37 1014.34 1014.16 1014.02 1013.87 1013.88 1014.02 1014.21 1014.34 1014.48 1014.52 1014.56 1014.40 1014.25 1013.82 1013.54
1026.29 1026.05 1025.61 1025.17 1024.88 1024.63 1024.14 1023.71 1023.26 1022.83 1022.45 1022.08 1021.70 1021.16 1020.45 1019.60 1018.83 1018.66 1018.64 1018.44 1018.26 1018.15 1017.81 1017.14 1016.70 1016.25 1015.89 1015.20 1014.79 1014.60 1014.23 1014.00 1013.92 1013.97 1014.13 1014.24 1014.53 1014.65 1014.46 1014.30 1014.23 1014.13 1014.02
1026.37 1025.93 1025.43 1025.29 1025.12 1024.62 1024.29 1023.88 1023.40 1022.95 1022.49 1022.09 1021.71 1021.35 1020.83 1019.99 1018.87 1018.66 1018.70 1018.59 1018.34 1018.10 1017.79 1017.33 1016.77 1016.41 1016.02 1015.68 1015.32 1015.06 1014.80 1014.35 1014.10 1014.39 1014.32 1014.39 1014.58 1014.48 1014.36 1014.25 1014.11 1014.00 1013.72
1026.39 1025.88 1025.51 1025.29 1024.88 1024.85 1024.38 1024.00 1023.59 1023.13 1022.78 1022.42 1022.04 1021.63 1021.15 1020.41 1019.33 1018.74 1018.72 1018.64 1018.47 1018.13 1017.68 1017.23 1016.73 1016.26 1015.79 1015.57 1015.49 1015.46 1015.32 1014.95 1014.46 1014.23 1014.17 1014.16 1014.14 1014.09 1014.07 1013.98 1013.77 1013.62 1013.36
1026.29 1025.94 1025.59 1025.12 1024.93 1024.99 1024.50 1024.05 1023.77 1023.42 1023.04 1022.74 1022.39 1021.87 1021.28 1020.64 1019.72 1018.94 1018.85 1018.66 1018.53 1018.28 1017.74 1017.08 1016.57 1015.99 1015.19 1015.29 1015.47 1015.42 1015.40 1015.14 1014.73 1014.18 1013.84 1013.65 1013.51 1013.58 1013.43 1013.80 1013.75 1013.52 1013.23
1026.01 1025.68 1025.40 1024.94 1025.02 1024.87 1024.53 1024.00 1023.88 1023.57 1023.23 1022.96 1022.42 1022.01 1021.78 1021.08 1019.82 1018.89 1018.57 1018.51 1018.47 1018.24 1017.70 1017.21 1016.62 1015.74 1015.26 1015.01 1015.23 1015.32 1015.30 1015.18 1014.95 1014.59 1014.23 1013.86 1013.75 1013.78 1013.41 1013.83 1013.75 1013.47 1013.22
1025.76 1025.37 1025.26 1024.91 1024.59 1024.35 1024.11 1023.90 1023.99 1023.66 1023.42 1023.16 1022.69 1022.28 1021.56 1020.87 1020.27 1019.35 1018.78 1018.44 1018.28 1018.11 1017.76 1017.29 1016.66 1015.91 1015.54 1015.16 1014.90 1014.86 1014.78 1014.96 1014.86 1014.71 1014.41 1014.01 1013.78 1013.66 1013.49 1013.50 1013.45 1013.38 1013.24
1025.38 1024.97 1024.82 1024.51 1024.26 1024.15 1023.92 1023.88 1023.87 1023.64 1023.63 1023.34 1022.88 1022.37 1021.66 1020.90 1020.52 1019.76 1018.97 1018.51 1018.22 1018.32 1018.03 1017.41 1016.80 1016.13 1015.82 1015.51 1015.14 1014.84 1014.82 1014.90 1014.84 1014.84 1014.64 1014.39 1014.13 1013.90 1013.34 1013.12 1013.02 1012.84 1012.79
1025.04 1024.81 1024.55 1024.18 1024.10 1024.08 1023.89 1023.69 1023.59 1023.42 1023.42 1023.24 1022.78 1022.42 1021.89 1020.96 1020.24 1019.59 1019.25 1018.99 1018.48 1018.17 1017.85 1017.48 1017.11 1016.74 1016.41 1016.02 1015.47 1015.09 1014.90 1014.83 1014.74 1014.62 1014.47 1014.11 1013.76 1013.55 1013.20 1012.86 1012.48 1012.46 1012.30
1025.01 1024.72 1024.37 1024.36 1024.07 1023.74 1023.36 1023.35 1023.27 1023.12 1023.06 1022.76 1022.62 1022.15 1021.58 1020.85 1020.19 1019.72 1019.31 1018.94 1018.64 1018.36 1018.16 1017.86 1017.46 1017.10 1016.77 1016.50 1016.07 1015.58 1015.20 1014.79 1014.56 1014.55 1014.28 1013.78 1013.39 1013.02 1012.92 1012.70 1012.48 1012.21 1012.04
1024.89 1024.57 1024.32 1024.13 1024.00 1023.87 1023.44 1023.10 1022.74 1022.49 1022.46 1022.31 1022.03 1021.71 1021.41 1020.81 1020.33 1019.84 1019.35 1019.08 1018.45 1018.32 1018.21 1018.03 1017.80 1017.50 1017.12 1016.67 1016.25 1015.91 1015.46 1015.02 1014.79 1014.45 1014.13 1013.69 1013.26 1012.86 1012.66 1012.40 1012.16 1011.86 1011.68
1024.87 1024.50 1024.22 1024.15 1023.95 1023.75 1023.55 1022.93 1022.23 1022.14 1021.82 1021.62 1021.18 1021.02 1020.78 1020.51 1019.96 1019.66 1019.36 1019.09 1018.81 1018.45 1018.36 1018.43 1018.14 1017.80 1017.42 1016.93 1016.50 1015.95 1015.50 1015.12 1014.82 1014.46 1013.99 1013.61 1013.21 1012.79 1012.36 1011.85 1011.66 1011.39 1010.97
1024.74 1024.46 1024.24 1024.04 1024.03 1023.85 1023.53 1023.28 1022.91 1022.11 1021.74 1021.52 1021.28 1020.90 1020.64 1020.33 1019.78 1019.60 1019.40 1019.14 1018.95 1018.87 1019.01 1018.71 1018.53 1018.08 1017.56 1017.13 1016.67 1016.17 1015.69 1015.06 1014.65 1014.34 1014.02 1013.52 1013.03 1012.69 1012.34 1011.78 1011.34 1010.96 1010.43
1024.45 1024.16 1024.15 1024.11 1023.98 1023.71 1023.40 1023.12 1022.89 1022.57 1022.31 1021.75 1021.17 1020.84 1020.59 1020.26 1019.93 1019.71 1019.58 1019.24 1019.30 1018.97 1018.95 1018.79 1018.48 1018.08 1017.66 1017.25 1016.62 1016.19 1015.62 1015.04 1014.49 1014.11 1013.85 1013.51 1013.04 1012.62 1012.16 1011.65 1011.17 1010.63 1010.09
1024.06 1024.00 1023.82 1023.84 1023.76 1023.58 1023.40 1023.14 1022.78 1022.40 1022.18 1021.88 1021.41 1020.83 1020.45 1020.08 1019.86 1019.74 1019.51 1019.48 1019.52 1019.11 1018.95 1018.63 1018.31 1017.99 1017.58 1017.12 1016.68 1016.06 1015.57 1015.05 1014.46 1014.08 1013.65 1013.28 1012.88 1012.48 1011.90 1011.37 1010.83 1010.23 1009.64
1023.64 1023.56 1023.47 1023.52 1023.49 1023.50 1023.42 1023.22 1022.90 1022.61 1022.29 1021.96 1021.54 1021.18 1020.61 1020.29 1020.15 1020.08 1019.74 1019.64 1019.40 1019.07 1018.70 1018.50 1018.13 1017.77 1017.35 1016.93 1016.38 1015.92 1015.39 1014.93 1014.47 1014.06 1013.59 1013.11 1012.59 1012.19 1011.65 1011.00 1010.50 1010.04 1009.39
1023.26 1023.23 1023.06 1023.23 1023.33 1023.28 1023.19 1023.11 1022.88 1022.69 1022.52 1022.22 1021.85 1021.31 1020.69 1020.81 1020.71 1020.41 1020.12 1019.85 1019.48 1018.92 1018.50 1018.34 1017.93 1017.52 1017.12 1016.73 1016.19 1015.73 1015.26 1014.75 1014.33 1013.92 1013.41 1012.84 1012.26 1011.75 1011.21 1010.62 1010.11 1009.65 1009.04
1022.93 1023.07 1022.99 1022.87 1022.90 1023.10 1023.08 1022.97 1022.77 1022.60 1022.51 1022.35 1022.13 1021.67 1021.24 1021.20 1021.01 1020.71 1020.38 1019.89 1019.41 1018.96 1018.57 1018.27 1017.87 1017.37 1016.84 1016.47 1016.01 1015.52 1015.11 1014.61 1014.01 1013.56 1013.14 1012.57 1011.98 1011.41 1010.90 1010.43 1009.85 1009.33 1008.75
1022.55 1022.86 1022.85 1022.90 1022.87 1022.86 1023.02 1023.07 1022.95 1022.73 1022.60 1022.54 1022.37 1022.07 1021.83 1021.64 1021.36 1020.94 1020.53 1019.94 1019.44 1019.00 1018.53 1018.20 1017.73 1017.04 1016.55 1016.14 1015.70 1015.45 1014.98 1014.44 1013.92 1013.33 1012.86 1012.36 1011.76 1011.18 1010.66 1010.24 1009.78 1009.24 1008.64
1022.17 1022.59 1022.80 1022.83 1022.89 1023.01 1023.03 1023.12 1023.08 1022.89 1022.64 1022.52 1022.40 1022.32 1022.22 1021.98 1021.58 1021.05 1020.56 1020.00 1019.55 1019.00 1018.53 1018.04 1017.61 1017.06 1016.49 1016.00 1015.46 1015.04 1014.69 1014.09 1013.46 1012.97 1012.48 1012.13 1011.69 1011.08 1010.55 1010.07 1009.57 1009.11 1008.74
1021.85 1022.27 1022.62 1022.77 1022.78 1022.82 1022.82 1022.82 1022.97 1023.08 1022.75 1022.33 1022.22 1022.27 1022.25 1021.99 1021.60 1021.14 1020.63 1020.08 1019.60 1019.11 1018.52 1018.03 1017.53 1016.93 1016.53 1016.04 1015.51 1014.86 1014.31 1013.76 1013.12 1012.57 1012.18 1011.82 1011.47 1010.95 1010.50 1010.11 1009.65 1009.11 1008.74
1021.67 1021.82 1022.05 1022.35 1022.40 1022.37 1022.42 1022.45 1022.44 1022.50 1022.51 1022.37 1022.18 1022.01 1021.87 1021.63 1021.36 1021.06 1020.69 1020.18 1019.67 1019.11 1018.54 1018.01 1017.49 1016.98 1016.45 1015.80 1015.32 1014.72 1014.11 1013.50 1013.00 1012.50 1012.20 1011.83 1011.39 1010.89 1010.41 1010.08 1009.73 1009.30 1008.98
Thickness
5451 5446 5439 5433 5427 5418 5411 5404 5396 5389 5382 5374 5369 5364 5360 5357 5354 5352 5353 5353 5353 5354 5356 5358 5362 5365 5368 5368 5370 5372 5373 5375 5376 5380 5382 5387 5392 5398 5404 5412 5418 5424 5432
5452 5447 5440 5434 5427 5421 5415 5408 5400 5392 5386 5380 5375 5369 5365 5361 5357 5353 5351 5352 5352 5353 5354 5356 5360 5363 5365 5368 5366 5368 5370 5369 5369 5367 5371 5377 5380 5386 5390 5395 5402 5408 5415
5453 5447 5442 5435 5429 5424 5419 5413 5405 5396 5391 5386 5380 5375 5370 5365 5362 5358 5354 5352 5350 5349 5348 5350 5354 5357 5361 5364 5365 5367 5366 5365 5365 5365 5367 5368 5370 5373 5377 5383 5386 5391 5400
5454 5449 5443 5438 5432 5426 5421 5415 5409 5403 5396 5392 5386 5381 5377 5372 5368 5361 5356 5352 5350 5348 5347 5347 5349 5352 5356 5360 5363 5366 5362 5362 5362 5362 5361 5358 5358 5362 5363 5365 5371 5378 5385
5455 5450 5445 5441 5435 5430 5424 5419 5413 5407 5401 5395 5390 5386 5382 5379 5376 5367 5361 5355 5350 5348 5347 5347 5348 5348 5350 5355 5355 5356 5359 5359 5359 5358 5355 5353 5351 5348 5347 5349 5353 5360 5367
5457 5452 5448 5444 5439 5433 5429 5424 5418 5413 5407 5402 5396 5391 5388 5386 5384 5376 5367 5361 5356 5350 5347 5347 5346 5346 5344 5347 5349 5349 5352 5353 5353 5352 5350 5350 5343 5336 5334 5337 5340 5346 5353
5458 5456 5453 5445 5439 5436 5431 5427 5422 5418 5413 5408 5402 5396 5391 5389 5391 5385 5375 5367 5362 5357 5352 5349 5348 5346 5345 5343 5343 5343 5343 5345 5344 5339 5339 5337 5332 5331 5329 5329 5331 5335 5340
5460 5459 5455 5449 5446 5437 5434 5429 5425 5421 5416 5411 5405 5400 5394 5392 5394 5391 5382 5373 5367 5363 5359 5355 5352 5350 5349 5345 5342 5338 5335 5334 5335 5334 5333 5330 5329 5328 5327 5326 5327 5329 5332
5462 5460 5456 5453 5448 5439 5437 5434 5428 5423 5419 5413 5408 5404 5400 5396 5396 5395 5386 5380 5373 5367 5364 5362 5359 5356 5358 5351 5343 5340 5335 5332 5331 5330 5330 5329 5328 5326 5327 5323 5324 5325 5327
5466 5463 5459 5456 5448 5444 5440 5439 5432 5427 5423 5417 5413 5408 5401 5398 5402 5401 5396 5387 5379 5374 5370 5366 5364 5364 5361 5357 5347 5342 5337 5333 5330 5328 5326 5325 5324 5321 5321 5318 5318 5320 5321
5468 5466 5461 5458 5454 5450 5447 5443 5434 5431 5425 5418 5415 5410 5408 5406 5402 5403 5399 5393 5387 5381 5375 5371 5368 5369 5363 5359 5355 5349 5342 5336 5332 5328 5325 5324 5323 5321 5319 5317 5315 5314 5314
5473 5471 5466 5463 5459 5454 5450 5444 5438 5432 5424 5419 5415 5412 5410 5409 5405 5403 5402 5398 5393 5383 5378 5375 5373 5372 5366 5361 5356 5352 5346 5338 5333 5329 5326 5322 5318 5317 5319 5318 5316 5314 5311
5481 5477 5472 5470 5463 5457 5452 5448 5442 5436 5428 5422 5418 5414 5409 5411 5408 5408 5403 5398 5396 5390 5386 5382 5377 5371 5366 5360 5359 5355 5348 5341 5336 5333 5329 5326 5324 5320 5318 5317 5316 5313 5311
5487 5482 5479 5473 5468 5464 5460 5453 5446 5441 5433 5428 5421 5419 5415 5413 5411 5407 5403 5398 5397 5391 5386 5380 5376 5372 5367 5362 5357 5354 5350 5346 5341 5334 5332 5330 5328 5325 5321 5317 5314 5312 5309
5492 5488 5483 5478 5473 5467 5463 5458 5453 5447 5441 5433 5429 5425 5418 5415 5413 5411 5406 5400 5400 5396 5388 5381 5374 5369 5365 5362 5359 5355 5351 5347 5341 5337 5334 5331 5330 5327 5323 5318 5315 5312 5309
5495 5492 5487 5482 5477 5472 5466 5462 5460 5454 5452 5446 5443 5434 5427 5423 5420 5414 5407 5401 5397 5394 5386 5377 5372 5369 5366 5363 5360 5357 5354 5350 5345 5341 5338 5334 5332 5330 5327 5325 5320 5317 5315
5497 5494 5490 5487 5480 5474 5469 5464 5459 5460 5456 5451 5445 5440 5433 5425 5423 5415 5408 5402 5395 5387 5378 5374 5369 5366 5364 5361 5359 5357 5354 5353 5349 5344 5341 5338 5335 5332 5329 5327 5325 5321 5319
5500 5499 5492 5487 5482 5478 5473 5468 5462 5458 5452 5449 5448 5443 5436 5429 5423 5416 5407 5401 5391 5384 5376 5371 5368 5364 5361 5358 5358 5355 5354 5353 5352 5348 5344 5340 5337 5333 5331 5329 5327 5324 5321
5503 5499 5495 5489 5484 5479 5474 5470 5466 5462 5456 5450 5446 5444 5439 5433 5427 5418 5410 5399 5389 5383 5375 5369 5365 5360 5356 5354 5353 5354 5354 5352 5352 5349 5346 5343 5339 5336 5333 5331 5328 5327 5326
5505 5502 5497 5491 5486 5479 5474 5469 5466 5462 5457 5452 5448 5442 5438 5431 5423 5415 5407 5398 5391 5383 5376 5367 5361 5356 5351 5350 5351 5351 5352 5351 5350 5348 5346 5345 5343 5339 5337 5336 5333 5329 5326
5506 5502 5499 5492 5486 5481 5476 5470 5466 5461 5455 5451 5447 5443 5441 5429 5420 5414 5406 5397 5391 5384 5375 5364 5356 5350 5346 5344 5347 5348 5348 5350 5349 5348 5348 5347 5346 5344 5342 5341 5337 5333 5330
5506 5501 5497 5493 5487 5481 5475 5471 5466 5461 5455 5450 5445 5441 5437 5428 5420 5413 5405 5399 5392 5384 5375 5364 5353 5345 5341 5338 5341 5343 5345 5346 5349 5349 5349 5349 5349 5348 5346 5344 5342 5339 5336
5505 5499 5495 5490 5485 5481 5474 5468 5462 5458 5453 5447 5442 5437 5430 5424 5418 5412 5406 5400 5393 5384 5374 5363 5352 5341 5336 5333 5334 5337 5341 5344 5347 5349 5349 5350 5350 5350 5350 5348 5345 5343 5341
5504 5497 5492 5487 5483 5475 5470 5464 5460 5456 5452 5446 5441 5434 5427 5421 5416 5412 5406 5401 5393 5384 5375 5364 5353 5340 5332 5327 5329 5333 5337 5341 5346 5349 5351 5351 5350 5351 5351 5349 5347 5345 5342
5502 5495 5488 5482 5478 5473 5469 5464 5458 5452 5449 5446 5441 5434 5426 5420 5416 5411 5406 5401 5394 5385 5377 5366 5354 5342 5329 5323 5323 5329 5335 5340 5344 5348 5351 5352 5352 5353 5352 5351 5349 5347 5344
5499 5494 5488 5482 5478 5475 5470 5466 5462 5456 5449 5443 5439 5435 5429 5423 5418 5413 5406 5400 5394 5387 5378 5368 5357 5344 5332 5325 5322 5325 5333 5340 5344 5346 5348 5350 5352 5353 5353 5352 5351 5349 5346